www.pogodaiklimat.ru

Погода и климат >> Архив погоды >> КНДР >> Чунган


ПОГОДА в Чунгане

  • Прогноз погоды в Чунгане
  • Монитор погоды в Чунгане

АРХИВ ПОГОДЫ в Чунгане

Время (UTC), дата Ветер
(напр.,м/с)
 
Видим.   Явления Облачность Т
(С)
Тd
(С)
f
(%)
Тe
(С)
Тes
(С)
Комфортность P
(гПа)
Po
(гПа)
Тmin
(С)
Tmax
(С)
R
(мм)
R24
(мм)
S
(см)
12 18.06 штиль 0 15 км 10/10 600 м
[Sc]
+20.4 +16.3 77 +23 +23 комфорт 1007.4 969.9 +27.1
15 18.06 штиль 0 15 км 4/0
[Ci fib]
+16.3 +14.4 89 +16 +16 1009.4 971.5
18 18.06 штиль 0 15 км 9/0
[Ci fib]
+14.9 +13.6 92 +15 +15 1009.8 971.8
21 18.06 штиль 0 15 км 10/10 600 м
[Sc]
+14.7 +13.6 93 +14 +14 1010.2 972.2
00 19.06 штиль 0 15 км 10/10 600 м
[Sc]
+16.9 +15.1 89 +17 +17 1011.8 974.0 +14.2
03 19.06 штиль 0 15 км 5/5 600 м
[Sc]
+21.5 +18.7 84 +26 +39 душно 1009.2 971.8
06 19.06 ЮЗ 3 15 км 3/3 600 м
[Sc]
+27.5 +17.2 53 +31 +40 душно 1007.0 970.5
09 19.06 ЮЗ 4 15 км 3/3 600 м
[Sc]
+27.9 +14.9 45 +30 +32 жарко 1002.8 966.5
12 19.06 штиль 0 15 км 8/8 600 м
[Sc]
+24.0 +13.6 52 +26 +26 жарко 1004.0 967.0 +28.7
15 19.06 штиль 0 15 км 10/10 600 м
[Sc]
+18.3 +12.0 67 +19 +19 1006.7 969.0
18 19.06 штиль 0 15 км 10/10 600 м
[Sc]
+16.1 +13.8 86 +16 +16 1007.6 969.7
21 19.06 штиль 0 15 км 10/10 600 м
[Sc]
+16.9 +15.1 89 +17 +17 1007.8 970.0
00 20.06 штиль 0 15 км 8/8 600 м
[Sc]
+18.5 +15.6 83 +19 +22 1007.1 969.5 +15.7
03 20.06 ЮЗ 4 15 км 8/0 1500 м
[Ac lent]
+25.7 +19.0 67 +31 +36 очень
душно
1004.4 967.7
06 20.06 штиль 0 10 км слаб. ливневой дождь 10/0 600 м
[As op]
+19.9 +17.3 85 +22 +26 комфорт 1005.1 967.6 5
09 20.06 штиль 0 15 км 10/0 1500 м
[Ac lent]
+20.4 +18.3 88 +24 +25 комфорт 1005.0 967.5
12 20.06 штиль 0 15 км 10/0 1500 м
[As op]
+18.9 +17.3 90 +20 +20 1006.5 968.9 +26.6 22
15 20.06 штиль 0 15 км 8/0 1500 м
[Ac lent]
+16.7 +15.0 90 +17 +17 1008.7 970.9
18 20.06 штиль 0 15 км ясно +13.7 +12.4 92 +13 +13 1008.7 970.5
21 20.06 штиль 0 15 км 10/0 1500 м
[As op]
+13.3 +12.2 93 +13 +13 1009.9 971.5
00 21.06 штиль 0 15 км 6/6 600 м
[Sc]
+16.5 +14.8 90 +16 +22 1009.9 972.1 +12.3
03 21.06 штиль 0 15 км 8/8 600 м
[Sc]
+21.5 +13.7 61 +24 +29 комфорт 1001.4 972.2
06 21.06 СВ 3 15 км 8/8 600 м
[Sc]
+23.3 +11.7 48 +26 +28 жарко 1009.2 972.1
09 21.06 штиль 0 15 км 9/9 600 м
[Sc]
+23.5 +12.3 49 +25 +26 комфорт 1008.6 971.6
12 21.06 штиль 0 15 км 9/0
[Ci fib]
+18.5 +11.5 64 +19 +19 1009.2 971.6 +24.6
15 21.06 штиль 0 15 км ясно +15.7 +12.6 82 +16 +16 1011.2 973.1
18 21.06 штиль 0 15 км ясно +12.7 +10.0 84 +12 +12 1011.2 972.8
21 21.06 штиль 0 3500 м дымка 10/10 600 м
[Sc]
+11.9 +10.2 89 +11 +11 1012.3 973.6
00 22.06 штиль 0 3500 м дымка 10/10 600 м
[St]
+13.9 +12.2 89 +13 +13 1012.3 973.9 +11.4
03 22.06 штиль 0 15 км 6/0
[Ci fib]
+22.5 +17.4 73 +27 +51 опасность
солнечного
удара
1011.0 973.9
06 22.06 штиль 0 15 км 4/4 600 м
[Sc]
+26.7 +12.6 42 +28 +40 жарко 1008.1 971.5
09 22.06 штиль 0 15 км 9/9 600 м
[Sc]
+22.9 +11.8 50 +25 +26 комфорт 1008.2 971.1
12 22.06 штиль 0 15 км 8/0 1500 м
[Ac lent]
+19.1 +13.5 70 +20 +20 1009.6 972.9 +28.2
15 22.06 штиль 0 20 км ясно +15.9 +13.4 85 +16 +16 1011.7 973.6
18 22.06 штиль 0 20 км ясно +13.5 +11.9 90 +13 +13 1012.4 974.0
21 22.06 штиль 0 3000 м дымка 10/10 600 м
[St]
+13.5 +11.9 90 +13 +13 1012.9 974.5
00 23.06 штиль 0 3000 м дымка 10/10 600 м
[St]
+16.3 +14.4 89 +16 +16 1012.8 974.7 +13.3
03 23.06 штиль 0 15 км 5/5 600 м
[Sc]
+24.5 +18.7 70 +29 +42 душно 1011.2 974.2
06 23.06 штиль 0 15 км 6/6 600 м
[Sc]
+27.7 +13.3 41 +29 +37 жарко 1009.6 972.9
09 23.06 СВ 3 15 км 6/3 600 м
[Sc Ci fib]
+28.9 +12.1 35 +30 +31 жарко 1008.3 971.9
12 23.06 штиль 0 15 км 4/4 600 м
[Sc]
+21.9 +14.4 62 +25 +25 комфорт 1009.7 972.5 +29.3
15 23.06 штиль 0 15 км ясно +17.3 +13.9 80 +17 +17 1011.8 973.8
18 23.06 штиль 0 15 км ясно +14.9 +12.9 88 +15 +15 1012.4 974.2
21 23.06 штиль 0 15 км 8/8 600 м
[Sc]
+13.9 +12.2 89 +13 +14 1014.0 975.6
00 24.06 штиль 0 15 км ясно +18.9 +15.9 83 +20 +34 опасность
простуды
1014.1 976.3 +13.3
03 24.06 штиль 0 15 км ясно +26.5 +18.2 60 +31 +58 опасность
солнечного
удара
1012.0 975.2
06 24.06 штиль 0 15 км ясно +30.5 +13.5 35 +32 +52 опасность
солнечного
удара
1010.4 974.1
09 24.06 штиль 0 15 км ясно +32.1 +12.9 31 +33 +37 жарко 1009.8 973.6
12 24.06 штиль 0 15 км ясно +23.9 +15.7 60 +27 +27 жарко 1010.9 974.3 +32.2
15 24.06 штиль 0 15 км ясно +19.5 +16.0 80 +21 +21 комфорт 1013.6 975.9
18 24.06 штиль 0 15 км ясно +16.9 +14.7 87 +17 +17 1015.0 977.0
21 24.06 штиль 0 15 км ясно +15.1 +13.6 91 +15 +16 1016.7 978.5
00 25.06 штиль 0 20 км ясно +22.3 +17.3 73 +27 +41 душно 1016.2 978.6 +15.0
03 25.06 ЮЗ 3 15 км ясно +27.3 +16.9 53 +31 +47 душно 1014.4 977.6
06 25.06 ЮЗ 3 15 км ясно +30.4 +17.7 47 +35 +47 очень
душно
1012.0 975.6
09 25.06 ЮЗ 3 15 км 9/0
[Ci fib]
+29.9 +15.3 41 +32 +34 жарко 1011.3 974.9

 

Местоположение метеостанции Чунган (КНДР): широта 41.78 долгота 126.88 высота над уровнем моря 331 м.

В архиве по умолчанию представлена погода в Чунгане за последнюю неделю. Архивные данные за месяц целиком и за предыдущие месяцы, начиная с января 2011 года, Вы можете получить, выбрав интересующий диапазон дат из раскрывающегося списка и нажав кнопку "Ввод!".


*Определитесь, кто Вы:
робот инопланетянин человек

Внимание! Время в таблицах - всемирное. Для получения местного времени необходимо прибавить поправку, которая равна 9 ч.

Смотрите также архив погоды в соседних городах и на ближайших метеорологических станциях:

Погода в Линьцзяне (Гирин, Китай) (7 км)
Погода в Канге (КНДР) (93 км)
Погода в Цзиане (Цзяньси, Китай) (97 км)
Погода в Хесене (КНДР) (115 км)
Погода в Чанбае (Гирин, Китай) (117 км)
Погода в Самджиёне (КНДР) (118 км)
Погода в Хуадяне (Гирин, Китай) (134 км)
Погода в Пунгсане (КНДР) (151 км)
Погода в Джангджине (КНДР) (160 км)
Погода в Цинъюане (Гуандун, Китай) (164 км)

Пояснения к столбцам:

Ветер - указаны скорость ветра в м/с - средняя за 10 мин, порывы в срок и между сроками (в фигурных скобках) и направление, откуда дует ветер: С - северный, СВ - северо-восточный, В - восточный, ЮВ - юго-восточный, Ю - южный, ЮЗ - юго-западный, З - западный, СЗ - северо-западный.
Видимость - горизонтальная дальность видимости в метрах или километрах. При видимости от 1 до 10 км при отсутствии осадков обычно наблюдается дымка, при ухудшении видимости до 1 км и менее - туман. В сухую погоду видимость может ухудшаться дымом, пылью или мглою.
Явления - указаны атмосферные явления, наблюдавшиеся в срок или в последний час перед сроком; фигурными скобками обозначены явления, наблюдавшиеся между сроками (за 1-3 часа до срока); квадратными скобками обозначены град или гололедные отложения с указанием их диаметра в мм.
Облачность - указаны через наклонную черту общая и нижняя облачность в баллах и высота нижней границы облаков в метрах; квадратными скобками обозначены формы облаков: Ci - перистые, Cs - перисто-слоистые, Cc - перисто-кучевые, Ac - высококучевые, As - высокослоистые, Sc - слоисто-кучевые, Ns - слоисто-дождевые, Cu - кучевые, Cb - кучево-дождевые. Подробнее классификацию облаков см. в Атласе облаков (PDF).
T - Температура воздуха - температура, измеренная на высоте 2 м над землей.
Td - Температура точки росы - температура, при понижении до которой содержащийся в воздухе водяной пар достигнет насыщения.
f - Относительная влажность воздуха - влажноcть воздуха, измеренная на высоте 2 м над землей.
Te - Эффективная температура - температура, которую ощущает одетый по сезону человек в тени. Характеристика душности погоды. При расчете учитывается влияние влажности воздуха и скорости ветра на теплоощущения человека.
Tes - Эффективная температура на солнце - температура, которую ощущает человек, с поправкой на солнечный нагрев. Характеристика знойности погоды. Зависит от высоты солнца над горизонтом, облачности и скорости ветра. Ночью, в пасмурную погоду, а также при ветре 12 м/с и более поправка равна нулю.
P - Атмосферное давление - приведенное к уровню моря атмосферное давление.
Po - Атмосферное давление - измеренное на уровне метеостанции атмосферное давление.
Tmin - Минимальная температура - минимум температуры воздуха на высоте 2 м над землей.
Tmax - Максимальная температура - максимум температуры воздуха на высоте 2 м над землей.
R - Количество осадков - Количество выпавших осадков за период времени, мм. При наведении курсора мыши на число - период времени, за который выпало указанное количество осадков.
R24 - Количество осадков - Количество выпавших осадков за 24 часа, мм.
S - Снежный покров - Высота снежного покрова, см. При наведении курсора мыши на число - состояние снежного покрова и степень покрытия местности в баллах.